Kuchera_Ratio
0.0 0.0 0.0 0.0 0.0 0.0 0.0 0.0 0.0 0.0 0.0 0.0 0.0 0.0 0.0 0.0 0.0 0.0 0.0 0.0 0.0 0.0 0.0 0.0 0.0 0.0 0.0 0.0 0.0 0.0 0.0 0.0 0.0 0.0 0.0 0.0 0.0 0.0 0.0 0.0 0.0 0.0 0.0 0.0 0.0 0.0 0.0
0.0 0.0 0.0 0.0 0.0 0.0 0.0 0.0 0.0 0.0 0.0 0.0 0.0 0.0 0.0 0.0 0.0 0.0 0.0 0.0 0.0 0.0 0.0 0.0 0.0 0.0 0.0 0.0 0.0 0.0 0.0 0.0 0.0 0.0 0.0 0.0 0.0 0.0 0.0 0.0 0.0 0.0 0.0 0.0 0.0 0.0 0.0
0.0 0.0 0.0 0.0 0.0 0.0 0.0 0.0 0.0 0.0 0.0 0.0 0.0 0.0 0.0 0.0 0.0 0.0 0.0 0.0 0.0 0.0 0.0 0.0 0.0 0.0 0.0 0.0 0.0 0.0 0.0 0.0 0.0 0.0 0.0 0.0 0.0 0.0 0.0 0.0 0.0 0.0 0.0 0.0 0.0 0.0 0.0
0.0 0.0 0.0 0.0 0.0 0.0 0.0 0.0 0.0 0.0 0.0 0.0 0.0 0.0 0.0 0.0 0.0 0.0 0.0 0.0 0.0 0.0 0.0 0.0 0.0 0.0 0.0 0.0 0.0 0.0 0.0 0.0 0.0 0.0 0.0 0.0 0.0 0.0 0.0 0.0 0.0 0.0 0.0 0.0 0.0 0.0 0.0
0.0 0.0 0.0 0.0 0.0 0.0 0.0 0.0 0.0 0.0 0.0 0.0 0.0 0.0 0.0 0.0 0.0 0.0 0.0 0.0 0.0 0.0 0.0 0.0 0.0 0.0 0.0 0.0 0.0 0.0 0.0 0.0 0.0 0.0 0.0 0.0 0.0 0.0 0.0 0.0 0.0 0.0 0.0 0.0 0.0 0.0 0.0
0.0 0.0 0.0 0.0 0.0 0.0 0.0 0.0 0.0 0.0 0.0 0.0 0.0 0.0 0.0 0.0 0.0 0.0 0.0 0.0 0.0 0.0 0.0 0.0 0.0 0.0 0.0 0.0 0.0 0.0 0.0 0.0 0.0 0.0 0.0 0.0 0.0 0.0 0.0 0.0 4.8 0.0 0.0 0.0 0.0 0.0 0.0
0.0 0.0 0.0 0.0 0.0 0.0 0.0 0.0 0.0 0.0 0.0 0.0 0.0 0.0 0.0 0.0 0.0 0.0 0.0 0.0 0.0 0.0 0.0 0.0 0.0 0.0 0.0 0.0 0.0 0.0 0.0 0.0 0.0 0.0 0.0 0.0 0.0 0.0 0.0 0.0 0.0 0.0 0.0 0.0 0.0 0.0 0.0
0.0 0.0 0.0 0.0 0.0 0.0 0.0 0.0 0.0 0.0 0.0 0.0 0.0 0.0 0.0 0.0 0.0 0.0 0.0 0.0 0.0 0.0 3.1 0.0 0.0 0.0 0.0 0.0 0.0 0.0 0.0 0.5 0.6 0.0 0.0 0.0 0.0 0.0 0.0 0.0 0.0 0.0 0.0 0.0 0.0 0.0 0.0
0.0 0.0 0.0 0.0 0.0 0.0 0.0 0.0 0.0 0.0 0.0 0.0 0.0 0.0 0.0 0.0 0.0 0.0 0.0 0.0 0.0 0.0 3.2 0.0 0.0 0.0 0.0 0.0 0.0 0.0 0.0 1.1 4.1 0.0 0.0 0.0 0.0 0.0 0.0 0.0 0.0 0.0 0.0 0.0 0.0 0.0 0.0
0.0 0.0 0.0 0.0 0.0 0.0 0.0 0.0 0.0 0.0 0.0 0.0 0.0 0.0 0.0 0.0 0.0 0.0 0.0 0.0 0.0 0.0 7.9 2.6 0.0 0.0 0.0 0.0 0.0 0.0 0.0 0.3 3.8 0.0 0.0 0.0 0.0 0.0 0.0 0.0 0.0 0.0 0.0 0.0 0.0 0.0 0.0
0.0 0.0 0.0 0.0 0.0 0.0 0.0 0.0 0.0 0.0 0.0 0.0 0.0 0.0 0.0 0.0 0.0 0.0 0.0 0.0 0.0 0.0 19.6 0.7 0.0 0.0 0.0 0.0 0.0 0.0 0.0 0.0 6.0 5.2 0.0 0.0 0.0 0.0 0.0 0.0 0.0 0.0 0.0 0.0 0.0 0.0 0.0
0.0 0.0 0.0 0.0 0.0 0.0 0.0 0.0 0.0 0.0 0.0 0.0 0.0 0.0 0.0 0.0 0.0 0.0 0.0 0.0 0.0 11.5 20.5 10.8 0.0 0.4 1.5 0.0 0.0 0.0 0.0 0.0 0.0 3.1 0.0 0.0 0.0 0.0 0.0 0.0 0.0 0.0 0.0 0.0 0.0 0.0 5.7
0.0 0.0 0.0 0.0 0.0 0.0 0.0 0.0 0.0 0.0 0.0 0.0 0.0 0.0 0.0 0.0 0.0 0.0 0.0 0.0 11.8 18.2 4.7 13.4 10.4 4.3 3.2 5.8 2.5 0.0 1.5 5.7 9.3 7.8 4.7 0.0 0.0 0.0 0.0 0.0 0.0 0.0 0.0 7.1 12.3 12.1 11.5
0.0 0.0 0.0 0.0 0.0 0.0 0.0 0.0 0.0 0.0 0.0 0.0 0.0 0.0 0.0 0.0 0.0 0.0 0.0 3.7 18.3 13.2 13.7 3.8 6.1 2.8 11.3 7.1 4.6 1.3 4.8 7.3 4.8 7.4 3.7 6.4 8.5 0.0 0.0 0.0 0.0 0.0 0.0 3.9 13.1 12.5 12.2
0.0 0.0 0.0 0.0 0.0 0.0 0.0 0.0 0.0 0.0 0.0 0.0 0.0 0.0 0.0 0.0 0.0 0.0 0.0 15.4 16.1 13.7 8.9 11.4 6.6 11.2 12.0 7.8 7.4 5.4 8.1 10.4 6.9 6.3 7.8 3.9 5.3 0.0 0.0 0.0 0.0 0.0 0.0 0.0 0.0 0.0 1.7
0.0 0.0 0.0 0.0 0.0 0.0 0.0 0.0 0.0 0.0 0.0 0.0 0.0 0.0 0.0 0.0 0.0 0.0 7.6 12.7 10.9 2.8 3.0 5.2 14.9 11.8 15.9 13.5 11.8 9.5 9.2 7.5 9.2 6.1 4.3 3.3 7.3 0.0 0.0 0.0 0.0 0.0 0.0 1.5 0.1 10.0 9.7
0.0 0.0 0.0 0.0 0.0 0.0 0.0 0.0 0.0 0.0 0.0 0.0 0.0 0.0 0.0 0.0 0.0 0.0 14.1 11.8 6.1 0.0 0.0 8.9 12.5 13.8 13.4 14.1 12.0 11.7 12.1 6.9 6.3 6.5 3.5 3.3 0.1 1.8 0.0 0.0 0.0 0.0 0.0 0.0 0.0 0.2 8.9
0.0 0.0 0.0 0.0 0.0 0.0 0.0 0.0 0.0 0.0 0.0 0.0 0.0 6.0 0.0 0.0 5.7 4.9 12.9 7.4 0.7 3.3 0.0 3.6 5.0 8.3 12.3 9.9 12.3 12.5 12.3 9.3 1.8 5.9 9.2 4.3 5.0 8.6 1.5 0.0 0.0 0.0 0.0 0.0 2.4 1.9 1.5
0.0 0.0 0.0 0.0 0.0 0.0 0.0 0.0 0.0 0.0 0.0 0.0 2.0 0.0 0.0 0.0 13.2 12.6 5.6 5.7 3.3 7.0 6.7 7.0 9.7 5.4 5.2 8.6 13.9 8.7 6.6 0.0 1.6 7.3 8.0 5.0 3.0 9.7 8.3 0.0 0.0 0.0 0.0 0.0 0.0 0.0 1.5
0.0 0.0 0.0 0.0 0.0 0.0 0.0 0.0 0.0 0.0 0.0 0.0 2.6 6.5 3.4 2.0 4.6 12.2 12.9 12.4 11.8 2.8 6.1 4.6 8.5 5.1 10.0 11.0 6.6 10.3 9.9 3.5 0.0 4.2 1.4 3.0 5.2 4.7 10.0 4.7 0.0 0.4 0.0 0.0 0.0 2.9 0.7
0.0 0.0 0.0 0.0 0.0 0.0 0.0 0.0 0.0 0.0 0.0 0.0 3.6 10.9 12.1 13.4 13.6 12.3 11.4 14.4 15.2 15.6 8.3 5.8 12.0 12.0 12.9 14.9 12.9 12.9 10.0 8.5 1.6 3.3 5.0 6.3 8.4 4.6 1.5 0.0 0.0 0.0 0.0 0.0 0.0 0.0 1.6
0.0 0.0 0.0 0.0 0.0 0.0 0.0 0.0 0.0 0.0 0.0 0.0 6.4 7.7 9.0 12.9 13.2 13.2 13.0 15.7 15.7 14.7 13.9 15.2 15.2 13.2 12.6 15.3 14.4 16.0 13.7 12.1 12.9 9.5 9.7 8.5 10.6 7.4 6.7 0.0 0.0 0.0 0.0 0.0 0.0 0.0 0.0
0.0 0.0 0.0 0.0 0.0 0.0 0.0 0.0 0.0 0.0 0.0 0.0 0.0 0.0 4.7 10.1 10.0 14.4 14.7 15.0 14.9 10.7 10.4 6.2 10.5 14.8 14.5 12.6 9.4 8.0 7.3 8.0 9.6 13.0 12.9 12.7 12.8 12.4 11.7 3.4 0.3 10.2 10.3 9.6 5.6 6.1 4.6
0.0 0.0 0.0 0.0 0.0 0.0 0.0 0.0 0.0 0.0 0.0 0.0 0.1 1.5 8.0 12.9 12.3 14.5 13.4 12.5 12.9 10.9 15.6 9.3 7.9 14.3 7.4 1.8 2.7 4.7 8.3 7.8 8.4 9.2 9.2 14.2 13.6 12.8 12.1 8.5 14.1 14.5 11.3 9.8 11.8 11.3 8.9
0.0 0.0 0.0 0.0 0.0 0.0 0.0 0.0 0.0 0.0 0.0 0.0 0.0 2.0 8.2 12.5 10.0 11.9 12.9 12.9 12.0 10.2 11.8 12.1 7.9 5.1 3.0 7.5 11.4 15.8 12.8 13.0 10.6 6.3 9.4 9.8 12.8 13.9 14.0 13.1 15.2 13.6 15.1 15.0 13.4 13.3 11.5
0.0 0.0 0.0 0.0 0.0 0.0 0.0 0.0 0.0 0.0 0.0 0.0 0.2 0.0 3.2 10.8 12.9 11.5 13.1 11.7 13.1 13.6 14.9 10.9 4.4 4.1 4.9 8.7 12.6 15.1 19.5 16.2 15.3 12.5 4.2 4.0 11.4 14.9 13.3 15.2 17.1 16.7 15.8 13.0 13.1 15.0 13.9
0.0 0.0 0.0 0.0 0.0 0.0 0.0 0.0 0.0 0.0 0.0 0.0 1.2 0.0 4.5 12.5 7.3 9.0 13.4 14.4 13.6 14.1 14.9 11.4 13.9 13.4 7.4 13.4 16.5 16.9 16.2 13.6 19.7 17.6 17.6 16.9 15.6 15.5 15.5 16.9 18.2 17.0 15.5 12.6 16.9 16.2 15.3
0.0 0.0 0.0 0.0 0.0 0.0 0.0 0.0 0.0 0.0 0.0 0.0 2.0 0.0 5.4 9.6 6.7 6.2 5.5 12.4 12.9 14.0 15.2 13.8 15.0 15.3 15.9 17.1 17.4 17.7 17.2 17.5 17.4 17.8 18.6 18.2 18.2 17.3 16.2 17.5 18.5 14.9 14.7 17.5 16.6 14.8 15.6
0.0 0.0 0.0 0.0 0.0 0.0 0.0 0.0 0.0 0.0 0.0 0.0 0.7 0.0 0.0 8.2 9.7 3.9 0.0 0.5 4.4 9.2 15.1 15.0 15.2 15.5 13.9 17.0 16.4 14.2 16.9 14.2 18.0 19.5 17.8 18.3 17.8 17.4 17.3 16.6 14.3 14.6 16.0 15.5 14.5 16.9 16.4